Regional Weather Roundup
Issued by NWS

Home | Current Version | Previous Version | Text Only | Print | Product List | Glossary On
Versions: 1 2 3 4 5 6 7 8 9 10 11 12 13 14 15 16 17 18 19 20 21 22 23 24 25 26 27 28 29 30 31 32 33 34 35 36 37 38 39 40 41 42 43 44 45 46 47 48 49 50
000
ASUS43 KMKX 230511
RWRWI

WISCONSIN REGIONAL WEATHER ROUNDUP
NATIONAL WEATHER SERVICE MILWAUKEE/SULLIVAN WI
1200 AM CDT WED JUL 23 2014

NOTE: "FAIR" INDICATES FEW OR NO CLOUDS BELOW 12,000 FEET WITH NO
SIGNIFICANT WEATHER AND/OR OBSTRUCTIONS TO VISIBILITY.

WIZ001-002-006>008-014>016-023>028-230600-
NORTHWEST WISCONSIN

CITY           SKY/WX    TMP DP  RH WIND       PRES   REMARKS
SUPERIOR ARPT  CLEAR     53  53  97 CALM      30.16R
ASHLAND        CLEAR     56  55  97 SW3       30.15R
HAYWARD        PTCLDY    57  56  96 CALM      30.17R
SIREN          PTCLDY    60  57  88 CALM      30.18R
RICE LAKE      CLEAR     64  58  83 NW3       30.17R
LADYSMITH      CLEAR     62  58  87 N5        30.16R
EAU CLAIRE     CLEAR     66  61  84 N5        30.13R
MENOMONIE      CLEAR     67  61  81 N5        30.14R
NEW RICHMOND   CLEAR     64  57  80 N5        30.17R
OSCEOLA        PTCLDY    66  58  75 CALM      30.19R
$$

WIZ003>005-009-010-017-018-230600-
NORTH CENTRAL WISCONSIN

CITY           SKY/WX    TMP DP  RH WIND       PRES   REMARKS
WOODRUFF       CLEAR     57  54  90 N3        30.15R
RHINELANDER    CLEAR     58  56  93 CALM      30.15R
EAGLE RIVER    FOG       55  55 100 CALM      30.14R VSB 1/2
LAND O LAKES   FOG       52  51  99 CALM      30.15S VSB 3/4
PHILLIPS       CLEAR     59  57  92 CALM      30.15R
TOMAHAWK       PTCLDY    57  55  94 CALM      30.14S
MEDFORD        CLEAR     60  57  89 N6        30.14R
MERRILL        PTCLDY    59  58  95 CALM      30.13R
$$

WIZ029-030-035-036-043>047-230600-
CENTRAL WISCONSIN

CITY           SKY/WX    TMP DP  RH WIND       PRES   REMARKS
WAUSAU         PTCLDY    64  58  80 N8        30.11R
MOSINEE        PTCLDY    63  59  88 N8        30.13R
MARSHFIELD     CLEAR     65  57  75 N9        30.12R
STEVENS POINT  PTCLDY    63  57  82 N9        30.11R
WAUPACA        PTCLDY    67  60  76 N5        30.10R
WAUTOMA        CLEAR     69  59  70 N10       30.10R
WISC RAPIDS    CLEAR     67  59  75 NE10      30.12R
CAMP DOUGLAS   CLEAR     66  60  78 N5        30.10R
$$

WIZ011>013-019>022-031-037>040-048>050-230600-
NORTHEAST WISCONSIN

CITY           SKY/WX    TMP DP  RH WIND       PRES   REMARKS
ANTIGO         CLEAR     58  57  95 N6        30.13R
STURGEON BAY   CLEAR     64  54  68 N17       30.07R
GREEN BAY      CLEAR     65  56  72 N10       30.08R
MANITOWOC      CLOUDY    66  57  72 NE10      30.08R
APPLETON       CLEAR     64  54  68 N16       30.09R
CLINTONVILLE   CLEAR     64  55  72 N9        30.09R
OSHKOSH        CLEAR     69  58  67 N14G26    30.08R
$$

WIZ032>034-041-042-053>061-230600-
SOUTHWEST WISCONSIN

CITY           SKY/WX    TMP DP  RH WIND       PRES   REMARKS
LA CROSSE      CLEAR     71  63  75 N5        30.09R
SPARTA         CLEAR     69  59  71 CALM      30.11R
VIROQUA        FAIR      67  63  86 N7        30.10R
BOSCOBEL       PTCLDY    70  64  81 CALM      30.07R
PRAIRIE DU CHI CLEAR     71  64  77 CALM      30.07R
PLATTEVILLE    FAIR      71  66  83 N9        30.07R
$$

WIZ056-057-062-063-064-067-068-230600-
SOUTH CENTRAL WISCONSIN

CITY           SKY/WX    TMP DP  RH WIND       PRES   REMARKS
BARABOO/DELLS  PTCLDY    70  57  64 NE8       30.09R
LONE ROCK      CLEAR     77  64  64 N8        30.07R
WATERTOWN      CLEAR     72  64  75 N9        30.05R
MADISON        CLEAR     73  64  73 N14       30.05R
MIDDLETON      FAIR      74  62  65 N12       30.07R
MONROE         CLEAR     73  64  73 N10G17    30.05R
JANESVILLE     CLEAR     77  63  61 N9        30.02R
$$

WIZ051-052-058>065-066-070>072-230600-
SOUTHEAST WISCONSIN

CITY           SKY/WX    TMP DP  RH WIND       PRES   REMARKS
MILWAUKEE      CLOUDY    66  59  78 NE15G24   30.04R
WAUKESHA       MOCLDY    72  61  68 N8G18     30.05R
MILWAUKEE/TIMM CLOUDY    66  57  72 NE16G24   30.06R
RACINE         MOCLDY    69  63  81 NE17G24   30.05R
BURLINGTON     MOCLDY    73  65  76 N5        30.03R
KENOSHA        CLOUDY    74  64  71 NE17G30   30.03R
FOND DU LAC    PTCLDY    69  59  70 N14G23    30.08R
SHEBOYGAN      MOCLDY    68  59  73 NE12      30.06R
WEST BEND      CLOUDY    72  61  68 N7        30.05R
JUNEAU         CLEAR     69  57  64 N13       30.07R
$$

LSZ147-162-230600-
LAKE SUPERIOR

STATION/POSITION TIME  TEMP    WIND        PRES    WAVE
                       AIR SEA DIR/SP/G            HT/PER
                 (UTC) (F)     (DEG/KT/KT) (MB)    (FT/S)
W MID LAKE BUOY  0450   49 40  270/  6/  6 1020.6R   1/ 3
PORT WING        0440   60     180/  2/  3 1020.7R
SAXON HARBOR     0400             CALM     1020.0
$$

LMZ867-665-643>646-230600-
LAKE MICHIGAN

STATION/POSITION TIME  TEMP    WIND        PRES    WAVE
                       AIR SEA DIR/SP/G            HT/PER
                 (UTC) (F)     (DEG/KT/KT) (MB)    (FT/S)
N MID LAKE BUOY  0450   57 53  340/  8/ 10 1017.1R   3/ 5
NORTHPORT PIER   0400   65     350/ 18/ 25 1017.6R
KEWAUNEE LAKESHO 0400   64      10/  9/ 17 1018.1R
SHEBOYGAN LAKESH 0500   56      20/ 12/ 12 1018.4R
PORT WASHINGTON  0413           30/ 19/ 25 1017.3R
ATWATER BUOY     0400   54     350/ 10     1016.8R
MILWAUKEE LAKESH 0400           20/ 17/ 21   N/A
S MID LAKE BUOY  0450   68 65  360/ 23/ 29 1015.1R   2/ 3
KENOSHA   LAKESH 0500   62      10/ 18/ 20   N/A
$$

TC  - TEMPERATURE IN CELSIUS
VSB - VISIBILITY IN STATUTE MILES
WCI - WIND CHILL INDEX
HX  - HEAT INDEX




USA.gov is the U.S. government's official web portal to all federal, state and local government web resources and services.